Date String (YYYY-MM-DD hh:mm:ss) UTC,Instrument flags,Ambient pressure (hPa),Sample flow (lpm),Bypass flow (lpm),Sample temperature (°C),Ambient temperature (°C),ASC tube jacket temperature (°C),LED temperature (°C),Box temperature (°C),Sample RH (%),Span deviation,Mass concentration (μg/m³),Mass concentration (μg/m³),Mass concentration (μg/m³)
DateTimeUTC,F1_M11,P_M11,Q1_M11,Q2_M11,T1_M11,T2_M11,T3_M11,T4_M11,T5_M11,U1_M11,ZSPAN_M11,X2_M11,X0_M11,X1_M11
2022-09-08 23:00:00,,0821.5,5.00,0.00,29.4,27.6,00.0,38.0,31.2,18.2,0001.9,0009.26,0020.46,0007.81
2022-09-08 23:01:00,,0821.5,5.00,0.00,29.4,27.9,00.0,38.1,31.3,18.2,0001.3,0009.16,0020.65,0007.72
2022-09-08 23:02:00,,0821.5,5.00,0.00,29.4,28.1,00.0,38.1,31.4,18.2,0000.4,0009.00,0020.29,0007.66
2022-09-08 23:03:00,,0821.5,5.00,0.00,29.5,28.3,00.0,38.1,31.4,18.1,0000.8,0008.86,0019.02,0007.59
2022-09-08 23:04:00,,0821.5,4.99,0.00,29.5,27.6,00.0,38.1,31.4,18.1,0000.6,0008.73,0019.26,0007.53
2022-09-08 23:05:00,,0821.5,5.01,0.00,29.5,26.4,00.0,38.1,31.2,18.1,0000.3,0008.60,0018.89,0007.47
2022-09-08 23:06:00,,0821.4,5.01,0.00,29.4,26.4,00.0,38.1,31.2,17.3,0000.0,0008.54,0018.76,0007.42
2022-09-08 23:07:00,,0821.4,5.00,0.00,29.4,26.7,00.0,38.0,31.1,17.5,0000.0,0008.48,0017.82,0007.40
2022-09-08 23:08:00,,0821.4,4.99,0.00,29.3,27.0,00.0,38.0,31.1,17.9,0000.0,0008.43,0017.46,0007.36
2022-09-08 23:09:00,,0821.4,5.02,0.00,29.3,27.3,00.0,38.0,31.1,17.8,0000.0,0008.43,0017.63,0007.33
2022-09-08 23:10:00,,0821.4,5.01,0.00,29.3,27.6,00.0,38.0,31.2,17.7,0000.0,0008.44,0018.29,0007.30
2022-09-08 23:11:00,,0821.4,5.00,0.00,29.4,27.9,00.0,38.0,31.3,17.6,0000.0,0008.46,0018.45,0007.30
2022-09-08 23:12:00,,0821.4,5.00,0.00,29.4,28.1,00.0,38.0,31.3,17.3,0000.0,0008.47,0018.46,0007.31
2022-09-08 23:13:00,,0821.4,4.99,0.00,29.5,28.3,00.0,38.1,31.4,17.4,0000.8,0008.49,0017.85,0007.31
2022-09-08 23:14:00,,0821.4,5.01,0.00,29.5,28.3,00.0,38.1,31.5,17.7,0001.6,0008.49,0017.57,0007.30
2022-09-08 23:15:00,,0821.4,4.99,0.00,29.5,27.2,00.0,38.1,31.4,17.9,0000.9,0008.43,0017.20,0007.29
2022-09-08 23:16:00,,0821.4,5.02,0.00,29.5,26.3,00.0,38.1,31.3,18.3,0001.9,0008.38,0017.11,0007.29
2022-09-08 23:17:00,,0821.4,5.00,0.00,29.4,26.5,00.0,38.0,31.2,18.5,0001.7,0008.35,0017.11,0007.26
2022-09-08 23:18:00,,0821.4,5.00,0.00,29.4,26.8,00.0,38.0,31.1,18.7,0001.3,0008.35,0017.08,0007.21
2022-09-08 23:19:00,,0821.4,4.99,0.00,29.3,27.1,00.0,38.0,31.1,19.0,0001.0,0008.31,0018.23,0007.18
2022-09-08 23:20:00,,0821.4,5.00,0.00,29.3,27.4,00.0,38.0,31.2,18.7,0001.8,0008.28,0018.58,0007.17
2022-09-08 23:21:00,,0821.4,5.01,0.00,29.4,27.7,00.0,38.0,31.2,19.0,0002.3,0008.21,0017.84,0007.14
2022-09-08 23:22:00,,0821.4,5.00,0.00,29.4,28.0,00.0,38.0,31.3,20.2,0000.0,0008.16,0018.18,0007.11
2022-09-08 23:23:00,,0821.4,5.01,0.00,29.4,28.2,00.0,38.1,31.4,21.0,0000.0,0008.14,0019.21,0007.07
2022-09-08 23:24:00,,0821.4,4.98,0.00,29.5,28.4,00.0,38.1,31.4,20.1,0000.0,0008.13,0019.74,0007.03
2022-09-08 23:25:00,,0821.4,5.00,0.00,29.5,28.1,00.0,38.1,31.4,19.2,0000.0,0008.12,0021.39,0007.02
2022-09-08 23:26:00,,0821.4,5.01,0.00,29.5,26.8,00.0,38.1,31.3,18.6,0000.0,0008.14,0022.04,0007.02
2022-09-08 23:27:00,,0821.3,4.99,0.00,29.4,26.2,00.0,38.1,31.2,18.9,0000.0,0008.17,0022.14,0007.02
2022-09-08 23:28:00,,0821.3,4.99,0.00,29.4,26.5,00.0,38.0,31.1,17.3,0000.0,0008.16,0022.24,0007.03
2022-09-08 23:29:00,,0821.3,5.00,0.00,29.3,26.7,00.0,38.0,31.0,16.6,0000.0,0008.17,0022.03,0007.05
2022-09-08 23:30:00,,0821.4,4.99,0.00,29.3,27.1,00.0,38.0,31.1,17.1,0000.0,0008.24,0021.96,0007.08
2022-09-08 23:31:00,,0821.3,5.00,0.00,29.3,27.4,00.0,38.0,31.1,17.3,0000.0,0008.28,0021.50,0007.10
2022-09-08 23:32:00,,0821.3,5.00,0.00,29.3,27.7,00.0,38.0,31.2,16.8,0000.0,0008.28,0022.73,0007.11
2022-09-08 23:33:00,,0821.3,5.01,0.00,29.4,28.0,00.0,38.0,31.3,16.3,0000.0,0008.31,0023.15,0007.15
2022-09-08 23:34:00,,0821.4,5.01,0.00,29.4,28.2,00.0,38.1,31.4,16.9,0000.0,0008.32,0021.49,0007.19
2022-09-08 23:35:00,,0821.4,4.98,0.00,29.4,28.3,00.0,38.1,31.4,18.2,0000.0,0008.37,0021.70,0007.20
2022-09-08 23:36:00,,0821.4,4.99,0.00,29.5,27.6,00.0,38.1,31.4,17.0,0000.1,0008.38,0019.96,0007.23
2022-09-08 23:37:00,,0821.4,5.01,0.00,29.4,26.4,00.0,38.1,31.2,16.2,0002.4,0008.47,0018.86,0007.24
2022-09-08 23:38:00,,0821.4,4.99,0.00,29.4,26.2,00.0,38.0,31.2,16.6,0000.2,0008.52,0019.48,0007.25
2022-09-08 23:39:00,,0821.3,5.00,0.00,29.3,26.5,00.0,38.0,31.1,16.4,0000.0,0008.59,0019.57,0007.27
2022-09-08 23:40:00,,0821.3,5.01,0.00,29.3,26.8,00.0,38.0,31.0,14.0,0000.0,0008.62,0019.07,0007.35
2022-09-08 23:41:00,,0821.2,5.00,0.00,29.3,27.2,00.0,38.0,31.1,13.8,0000.0,0008.67,0018.57,0007.46
2022-09-08 23:42:00,,0821.2,5.00,0.00,29.3,27.5,00.0,38.0,31.1,15.2,0000.0,0008.73,0019.09,0007.53
2022-09-08 23:43:00,,0821.3,5.00,0.00,29.3,27.8,00.0,38.0,31.2,16.6,0000.0,0008.75,0018.52,0007.55
2022-09-08 23:44:00,,0821.4,4.99,0.00,29.4,28.0,00.0,38.0,31.3,16.9,0000.0,0008.77,0018.21,0007.57
2022-09-08 23:45:00,,0821.4,5.00,0.00,29.4,28.2,00.0,38.0,31.3,18.5,0000.0,0008.78,0018.50,0007.57
2022-09-08 23:46:00,,0821.5,5.00,0.00,29.4,28.3,00.0,38.1,31.4,23.0,0000.0,0008.78,0018.98,0007.57
2022-09-08 23:47:00,,0821.6,4.98,0.00,29.5,27.9,00.0,38.1,31.4,21.7,0000.0,0008.82,0019.75,0007.54
2022-09-08 23:48:00,,0821.6,5.01,0.00,29.4,26.7,00.0,38.1,31.2,21.9,0000.0,0008.74,0019.81,0007.50
2022-09-08 23:49:00,,0821.6,5.01,0.00,29.4,26.3,00.0,38.0,31.2,20.1,-000.0,0008.73,0019.88,0007.47
2022-09-08 23:50:00,,0821.5,5.00,0.00,29.3,26.5,00.0,38.0,31.1,18.0,0000.1,0008.71,0020.50,0007.43
2022-09-08 23:51:00,,0821.6,5.00,0.00,29.3,26.8,00.0,38.0,31.0,19.2,0000.1,0008.67,0021.42,0007.32
2022-09-08 23:52:00,,0821.5,4.99,0.00,29.3,27.1,00.0,38.0,31.0,20.8,0000.2,0008.60,0022.87,0007.17
2022-09-08 23:53:00,,0821.6,5.01,0.00,29.3,27.4,00.0,38.0,31.1,18.8,0000.8,0008.54,0023.06,0007.07
2022-09-08 23:54:00,,0821.7,5.00,0.00,29.3,27.7,00.0,38.0,31.2,20.0,0000.7,0008.56,0023.07,0007.04
2022-09-08 23:55:00,,0821.7,5.00,0.00,29.3,27.9,00.0,38.0,31.3,20.4,0000.3,0008.57,0023.30,0006.99
2022-09-08 23:56:00,,0821.7,5.01,0.00,29.4,28.1,00.0,38.0,31.3,18.6,0000.9,0008.56,0023.64,0006.95
2022-09-08 23:57:00,,0821.7,5.00,0.00,29.4,28.3,00.0,38.1,31.4,17.8,0000.7,0008.47,0022.62,0006.93
2022-09-08 23:58:00,,0821.7,4.98,0.00,29.5,28.1,00.0,38.1,31.4,17.1,0000.0,0008.38,0021.56,0006.94
2022-09-08 23:59:00,,0821.7,5.00,0.00,29.4,26.8,00.0,38.1,31.2,17.3,0000.0,0008.38,0021.60,0006.95
